Time,TemperatureF,DewpointF,PressureIn,WindDirection,WindDirectionDegrees,WindSpeedMPH,WindSpeedGustMPH,Humidity,HourlyPrecipIn,Conditions,Clouds,dailyrainin,SoftwareType,DateUTC
2013-01-26 00:04:00,16.0,13.0,30.04,SW,219,0.0,0.0,88,0.00,,,0.00,weatherlink.com 1.10,2013-01-26 05:04:00,
2013-01-26 00:19:00,15.9,13.0,30.04,SW,219,0.0,0.0,88,0.00,,,0.00,weatherlink.com 1.10,2013-01-26 05:19:00,
2013-01-26 00:34:00,15.8,13.0,30.04,SW,219,0.0,0.0,88,0.00,,,0.00,weatherlink.com 1.10,2013-01-26 05:34:00,
2013-01-26 00:49:00,15.8,13.0,30.03,SW,219,0.0,0.0,88,0.00,,,0.00,weatherlink.com 1.10,2013-01-26 05:49:00,
2013-01-26 01:04:00,15.8,13.0,30.03,SW,219,0.0,1.0,89,0.00,,,0.00,weatherlink.com 1.10,2013-01-26 06:04:00,
2013-01-26 01:19:00,15.7,13.0,30.03,SW,219,0.0,1.0,89,0.00,,,0.00,weatherlink.com 1.10,2013-01-26 06:19:00,
2013-01-26 01:34:00,15.3,13.0,30.03,SW,219,0.0,0.0,89,0.00,,,0.00,weatherlink.com 1.10,2013-01-26 06:34:00,
2013-01-26 01:49:00,14.7,12.0,30.02,SW,219,0.0,0.0,89,0.00,,,0.00,weatherlink.com 1.10,2013-01-26 06:49:00,
2013-01-26 02:04:00,13.8,11.0,30.02,SW,219,0.0,0.0,89,0.00,,,0.00,weatherlink.com 1.10,2013-01-26 07:04:00,
2013-01-26 02:19:00,12.9,10.0,30.01,SW,219,0.0,0.0,89,0.00,,,0.00,weatherlink.com 1.10,2013-01-26 07:19:00,
2013-01-26 02:34:00,12.1,10.0,30.01,SW,219,0.0,0.0,89,0.00,,,0.00,weatherlink.com 1.10,2013-01-26 07:34:00,
2013-01-26 02:49:00,11.6,9.0,30.00,SW,219,0.0,0.0,89,0.00,,,0.00,weatherlink.com 1.10,2013-01-26 07:49:00,
2013-01-26 03:04:00,11.3,9.0,30.00,SW,219,0.0,0.0,90,0.00,,,0.00,weatherlink.com 1.10,2013-01-26 08:04:00,
2013-01-26 03:19:00,11.3,9.0,30.00,SW,219,0.0,0.0,90,0.00,,,0.00,weatherlink.com 1.10,2013-01-26 08:19:00,
2013-01-26 03:34:00,11.2,9.0,30.00,SW,219,0.0,0.0,90,0.00,,,0.00,weatherlink.com 1.10,2013-01-26 08:34:00,
2013-01-26 03:49:00,10.9,9.0,30.00,SW,219,0.0,0.0,90,0.00,,,0.00,weatherlink.com 1.10,2013-01-26 08:49:00,
2013-01-26 04:04:00,10.6,8.0,30.00,SW,219,0.0,0.0,90,0.00,,,0.00,weatherlink.com 1.10,2013-01-26 09:04:00,
2013-01-26 04:19:00,10.2,8.0,30.00,SW,219,0.0,0.0,90,0.00,,,0.00,weatherlink.com 1.10,2013-01-26 09:19:00,
2013-01-26 04:34:00,10.1,8.0,30.00,SW,219,0.0,0.0,90,0.00,,,0.00,weatherlink.com 1.10,2013-01-26 09:34:00,
2013-01-26 04:50:00,9.9,8.0,30.00,SW,219,0.0,0.0,90,0.00,,,0.00,weatherlink.com 1.10,2013-01-26 09:50:00,
2013-01-26 05:04:00,9.7,7.0,30.00,SW,219,0.0,0.0,90,0.00,,,0.00,weatherlink.com 1.10,2013-01-26 10:04:00,
2013-01-26 05:20:00,9.4,7.0,30.00,SW,219,0.0,0.0,90,0.00,,,0.00,weatherlink.com 1.10,2013-01-26 10:20:00,
2013-01-26 05:34:00,9.4,7.0,30.01,SW,219,0.0,1.0,90,0.00,,,0.00,weatherlink.com 1.10,2013-01-26 10:34:00,
2013-01-26 05:50:00,9.3,7.0,30.02,SW,219,0.0,0.0,90,0.00,,,0.00,weatherlink.com 1.10,2013-01-26 10:50:00,
2013-01-26 06:05:00,8.9,6.0,30.02,SW,219,0.0,0.0,89,0.00,,,0.00,weatherlink.com 1.10,2013-01-26 11:05:00,
2013-01-26 06:19:00,8.4,6.0,30.02,SW,219,0.0,1.0,89,0.00,,,0.00,weatherlink.com 1.10,2013-01-26 11:19:00,
2013-01-26 06:34:00,8.3,6.0,30.02,SW,219,0.0,0.0,90,0.00,,,0.00,weatherlink.com 1.10,2013-01-26 11:34:00,
2013-01-26 06:49:00,8.3,6.0,30.03,SW,219,0.0,0.0,90,0.00,,,0.00,weatherlink.com 1.10,2013-01-26 11:49:00,
2013-01-26 07:05:00,8.3,6.0,30.03,SW,221,0.0,1.0,90,0.00,,,0.00,weatherlink.com 1.10,2013-01-26 12:05:00,
2013-01-26 07:19:00,8.4,6.0,30.03,SSW,205,0.0,1.0,90,0.00,,,0.00,weatherlink.com 1.10,2013-01-26 12:19:00,
2013-01-26 07:35:00,9.0,6.0,30.03,North,4,2.0,2.0,89,0.00,,,0.00,weatherlink.com 1.10,2013-01-26 12:35:00,
2013-01-26 07:49:00,9.9,7.0,30.04,North,355,0.0,3.0,88,0.00,,,0.00,weatherlink.com 1.10,2013-01-26 12:49:00,
2013-01-26 08:04:00,10.9,7.0,30.04,SE,125,0.0,3.0,85,0.00,,,0.00,weatherlink.com 1.10,2013-01-26 13:04:00,
2013-01-26 08:19:00,11.7,8.0,30.04,NNW,332,0.0,3.0,83,0.00,,,0.00,weatherlink.com 1.10,2013-01-26 13:19:00,
2013-01-26 08:34:00,12.6,7.0,30.05,SE,129,1.0,4.0,79,0.00,,,0.00,weatherlink.com 1.10,2013-01-26 13:34:00,
2013-01-26 08:50:00,13.3,7.0,30.05,NNW,328,0.0,4.0,75,0.00,,,0.00,weatherlink.com 1.10,2013-01-26 13:50:00,
2013-01-26 09:05:00,13.9,7.0,30.06,NNE,25,3.0,4.0,73,0.00,,,0.00,weatherlink.com 1.10,2013-01-26 14:05:00,
2013-01-26 09:20:00,14.4,7.0,30.06,SE,129,1.0,5.0,71,0.00,,,0.00,weatherlink.com 1.10,2013-01-26 14:20:00,
2013-01-26 09:35:00,15.2,7.0,30.06,NNW,330,2.0,4.0,69,0.00,,,0.00,weatherlink.com 1.10,2013-01-26 14:35:00,
2013-01-26 09:50:00,15.6,6.0,30.06,West,276,0.0,4.0,66,0.00,,,0.00,weatherlink.com 1.10,2013-01-26 14:50:00,
2013-01-26 10:05:00,16.3,6.0,30.06,East,79,2.0,3.0,65,0.00,,,0.00,weatherlink.com 1.10,2013-01-26 15:05:00,
2013-01-26 10:20:00,16.8,6.0,30.05,SW,226,1.0,3.0,63,0.00,,,0.00,weatherlink.com 1.10,2013-01-26 15:20:00,
2013-01-26 10:35:00,17.5,6.0,30.06,SSW,211,1.0,7.0,62,0.00,,,0.00,weatherlink.com 1.10,2013-01-26 15:35:00,
2013-01-26 10:50:00,18.4,7.0,30.05,NW,304,2.0,3.0,61,0.00,,,0.00,weatherlink.com 1.10,2013-01-26 15:50:00,
2013-01-26 11:05:00,18.9,7.0,30.05,WNW,294,1.0,5.0,59,0.00,,,0.00,weatherlink.com 1.10,2013-01-26 16:05:00,
2013-01-26 11:20:00,19.5,6.0,30.04,WSW,240,0.0,5.0,56,0.00,,,0.00,weatherlink.com 1.10,2013-01-26 16:20:00,
2013-01-26 11:35:00,20.0,6.0,30.04,NW,314,2.0,4.0,56,0.00,,,0.00,weatherlink.com 1.10,2013-01-26 16:35:00,
2013-01-26 11:50:00,20.8,7.0,30.03,NNW,338,3.0,6.0,55,0.00,,,0.00,weatherlink.com 1.10,2013-01-26 16:50:00,
2013-01-26 12:05:00,21.8,7.0,30.02,NE,36,1.0,3.0,52,0.00,,,0.00,weatherlink.com 1.10,2013-01-26 17:05:00,
2013-01-26 12:20:00,22.4,6.0,30.03,WNW,284,0.0,4.0,49,0.00,,,0.00,weatherlink.com 1.10,2013-01-26 17:20:00,
2013-01-26 12:35:00,23.3,8.0,30.02,NNE,13,0.0,4.0,52,0.00,,,0.00,weatherlink.com 1.10,2013-01-26 17:35:00,
2013-01-26 12:50:00,23.6,8.0,30.02,WNW,297,1.0,4.0,52,0.00,,,0.00,weatherlink.com 1.10,2013-01-26 17:50:00,
2013-01-26 13:05:00,23.5,7.0,30.01,NNW,332,1.0,6.0,49,0.00,,,0.00,weatherlink.com 1.10,2013-01-26 18:05:00,
2013-01-26 13:20:00,23.9,8.0,30.01,WNW,302,0.0,7.0,50,0.00,,,0.00,weatherlink.com 1.10,2013-01-26 18:20:00,
2013-01-26 13:35:00,23.8,6.0,30.01,NNW,336,0.0,3.0,46,0.00,,,0.00,weatherlink.com 1.10,2013-01-26 18:35:00,
2013-01-26 13:50:00,23.7,4.0,30.02,NNE,13,2.0,5.0,43,0.00,,,0.00,weatherlink.com 1.10,2013-01-26 18:50:00,
2013-01-26 14:06:00,23.7,3.0,30.02,NW,309,0.0,3.0,40,0.00,,,0.00,weatherlink.com 1.10,2013-01-26 19:06:00,
2013-01-26 14:21:00,23.5,2.0,30.02,North,5,2.0,4.0,39,0.00,,,0.00,weatherlink.com 1.10,2013-01-26 19:21:00,
2013-01-26 14:35:00,23.5,5.0,30.03,West,265,1.0,2.0,45,0.00,,,0.00,weatherlink.com 1.10,2013-01-26 19:35:00,
2013-01-26 14:50:00,23.5,2.0,30.03,NNW,345,0.0,4.0,40,0.00,,,0.00,weatherlink.com 1.10,2013-01-26 19:50:00,
2013-01-26 15:06:00,23.1,3.0,30.04,WSW,238,0.0,6.0,41,0.00,,,0.00,weatherlink.com 1.10,2013-01-26 20:06:00,
2013-01-26 15:20:00,22.7,1.0,30.05,NW,326,0.0,6.0,39,0.00,,,0.00,weatherlink.com 1.10,2013-01-26 20:20:00,
2013-01-26 15:35:00,22.3,2.0,30.05,WNW,295,1.0,4.0,41,0.00,,,0.00,weatherlink.com 1.10,2013-01-26 20:35:00,
2013-01-26 15:50:00,21.8,4.0,30.06,NW,304,2.0,3.0,46,0.00,,,0.00,weatherlink.com 1.10,2013-01-26 20:50:00,
2013-01-26 16:05:00,21.4,3.0,30.06,West,280,0.0,2.0,46,0.00,,,0.00,weatherlink.com 1.10,2013-01-26 21:05:00,
2013-01-26 16:20:00,20.9,2.0,30.07,NW,322,3.0,3.0,44,0.00,,,0.00,weatherlink.com 1.10,2013-01-26 21:20:00,
2013-01-26 16:35:00,20.5,2.0,30.08,NW,321,2.0,6.0,44,0.00,,,0.00,weatherlink.com 1.10,2013-01-26 21:35:00,
2013-01-26 16:50:00,20.3,2.0,30.08,WSW,252,0.0,2.0,46,0.00,,,0.00,weatherlink.com 1.10,2013-01-26 21:50:00,
2013-01-26 17:06:00,19.8,2.0,30.09,North,359,2.0,4.0,47,0.00,,,0.00,weatherlink.com 1.10,2013-01-26 22:06:00,
2013-01-26 17:21:00,19.5,0.0,30.09,NW,309,2.0,5.0,42,0.00,,,0.00,weatherlink.com 1.10,2013-01-26 22:21:00,
2013-01-26 17:36:00,18.9,-1.0,30.11,NW,305,0.0,4.0,42,0.00,,,0.00,weatherlink.com 1.10,2013-01-26 22:36:00,
2013-01-26 17:51:00,18.1,-3.0,30.12,West,281,2.0,4.0,40,0.00,,,0.00,weatherlink.com 1.10,2013-01-26 22:51:00,
2013-01-26 18:06:00,17.7,-4.0,30.12,NW,321,0.0,7.0,39,0.00,,,0.00,weatherlink.com 1.10,2013-01-26 23:06:00,
2013-01-26 18:21:00,17.3,-2.0,30.13,NW,319,2.0,5.0,42,0.00,,,0.00,weatherlink.com 1.10,2013-01-26 23:21:00,
2013-01-26 18:36:00,17.4,-4.0,30.14,SW,226,0.0,6.0,38,0.00,,,0.00,weatherlink.com 1.10,2013-01-26 23:36:00,
2013-01-26 18:51:00,17.3,-4.0,30.14,West,271,1.0,6.0,38,0.00,,,0.00,weatherlink.com 1.10,2013-01-26 23:51:00,
2013-01-26 19:06:00,17.0,-4.0,30.15,West,266,1.0,5.0,39,0.00,,,0.00,weatherlink.com 1.10,2013-01-27 00:06:00,
2013-01-26 19:21:00,16.5,-4.0,30.15,NNW,330,1.0,5.0,40,0.00,,,0.00,weatherlink.com 1.10,2013-01-27 00:21:00,
2013-01-26 19:36:00,16.1,-4.0,30.16,West,278,2.0,7.0,41,0.00,,,0.00,weatherlink.com 1.10,2013-01-27 00:36:00,
2013-01-26 19:51:00,16.0,-4.0,30.16,West,274,0.0,6.0,41,0.00,,,0.00,weatherlink.com 1.10,2013-01-27 00:51:00,
2013-01-26 20:07:00,15.7,-2.0,30.16,WNW,291,0.0,3.0,46,0.00,,,0.00,weatherlink.com 1.10,2013-01-27 01:07:00,
2013-01-26 20:21:00,15.3,-1.0,30.16,West,270,1.0,3.0,48,0.00,,,0.00,weatherlink.com 1.10,2013-01-27 01:21:00,
2013-01-26 20:37:00,14.9,0.0,30.17,North,4,3.0,5.0,52,0.00,,,0.00,weatherlink.com 1.10,2013-01-27 01:37:00,
2013-01-26 20:52:00,14.6,-1.0,30.18,ESE,117,0.0,2.0,51,0.00,,,0.00,weatherlink.com 1.10,2013-01-27 01:52:00,
2013-01-26 21:07:00,14.1,0.0,30.18,West,266,0.0,3.0,53,0.00,,,0.00,weatherlink.com 1.10,2013-01-27 02:07:00,
2013-01-26 21:22:00,14.0,-1.0,30.19,SSW,207,1.0,3.0,52,0.00,,,0.00,weatherlink.com 1.10,2013-01-27 02:22:00,
2013-01-26 21:37:00,13.8,-1.0,30.19,West,274,1.0,2.0,53,0.00,,,0.00,weatherlink.com 1.10,2013-01-27 02:37:00,
2013-01-26 21:52:00,13.7,0.0,30.20,West,266,1.0,2.0,55,0.00,,,0.00,weatherlink.com 1.10,2013-01-27 02:52:00,
2013-01-26 22:07:00,13.7,0.0,30.20,West,267,1.0,3.0,55,0.00,,,0.00,weatherlink.com 1.10,2013-01-27 03:07:00,
2013-01-26 22:22:00,13.4,0.0,30.21,WNW,302,0.0,4.0,56,0.00,,,0.00,weatherlink.com 1.10,2013-01-27 03:22:00,
2013-01-26 22:37:00,13.6,0.0,30.22,NNW,346,0.0,4.0,56,0.00,,,0.00,weatherlink.com 1.10,2013-01-27 03:37:00,
2013-01-26 22:52:00,13.4,1.0,30.22,North,8,0.0,4.0,57,0.00,,,0.00,weatherlink.com 1.10,2013-01-27 03:52:00,
2013-01-26 23:08:00,13.6,1.0,30.23,SSW,198,1.0,3.0,57,0.00,,,0.00,weatherlink.com 1.10,2013-01-27 04:08:00,
2013-01-26 23:22:00,13.5,1.0,30.23,West,269,1.0,5.0,58,0.00,,,0.00,weatherlink.com 1.10,2013-01-27 04:22:00,
2013-01-26 23:37:00,13.3,1.0,30.23,NNW,347,2.0,5.0,57,0.00,,,0.00,weatherlink.com 1.10,2013-01-27 04:37:00,
2013-01-26 23:53:00,13.2,1.0,30.23,WNW,298,0.0,4.0,59,0.00,,,0.00,weatherlink.com 1.10,2013-01-27 04:53:00,